Weather in Nowshahr

Iran     36°38′10″N   51°33′01″E
temp.,
°C
wind,
m/s
gust,
m/s
humid.,
%
clouds,
%
prec.,
mm/h
press.,
hPa
HPBL,
m
23 april, fri
fri2301:30+15w7989100 0.0 1018382
04:30+15w6788100 0.1 1017273
07:30+15wnw5588100 0.0 1017236
10:30+15wnw7889100 0.0 1020493
13:30+15wnw91086100 0.1 1022634
16:30+15wnw8882100 0.1 1023595
19:30+15wnw8980100 0.0 1025629
22:30+15w6881100 0.1 1026562
24 april, sat
sat2401:30+15wnw5579100 0.1 1025457
04:30+14wnw3381100 0.1 1023331
07:30+14wnw2282100 0.0 1022290
10:30+14n118367 0.0 1021303
13:30+14nne1182100 0.1 1020275
16:30+15ene1279100 0.4 1018319
19:30+15e4482100 0.2 1017276
22:30+15se1182100 0.2 1018124
25 april, sun
sun2501:30+15wnw1184100 0.0 1019137
04:30+15ne11835 0.0 1019164
07:30+15w22835 0.0 1020216
10:30+15n11825 0.0 1020180
13:30+15nne22819 0.0 1019162
16:30+16e127838 0.0 1017180
19:30+16ese33805 0.0 1016177
22:30+16se22825 0.0 101661
26 april, mon
mon2601:30+16n0082100 0.0 101513
04:30+16se128093 0.0 101363
07:30+16e228059 0.0 101390
10:30+16e228026 0.0 101283
13:30+16e227913 0.0 1011102
16:30+16ese348074 0.1 1010111
19:30+17ese458298 0.1 1008106
22:30+18nw447937 0.1 101148
27 april, tue
tue2701:30+19ese6875100 0.1 100873
04:30+18ne467740 0.1 100770
07:30+17nnw448685 0.0 1010106
10:30+17wnw911877 0.0 1015506
13:30+16wnw578842 0.0 1016325
16:30+16nw45855 0.0 1014190
19:30+16wnw458334 0.0 1016252
22:30+16wnw798384 0.0 1018454